Radiation Dose at Monitoring Post of Fukushima Daini Nuclear Power Station
Date,Time,MP-1(microSv/h),MP-2(microSv/h),MP-3(microSv/h),MP-4(microSv/h),MP-5(microSv/h),MP-6(microSv/h),MP-7(microSv/h),Wind Direction,Wind Velocity(m/s),Rain
2015/02/27,00:00,0.532,0.324,0.540,0.494,0.543,0.248,0.220,north-northwest,3.9,No
2015/02/27,00:10,0.531,0.324,0.539,0.493,0.541,0.250,0.221,north-northwest,3.7,No
2015/02/27,00:20,0.529,0.325,0.539,0.491,0.543,0.249,0.220,north-northwest,4.4,No
2015/02/27,00:30,0.530,0.324,0.541,0.493,0.542,0.249,0.221,north-northwest,4.4,No
2015/02/27,00:40,0.530,0.323,0.540,0.495,0.542,0.249,0.219,north-northwest,4.7,No
2015/02/27,00:50,0.529,0.325,0.540,0.492,0.542,0.249,0.221,north-northwest,5.4,No
2015/02/27,01:00,0.531,0.325,0.542,0.493,0.542,0.248,0.220,north-northwest,5.0,No
2015/02/27,01:10,0.531,0.324,0.541,0.495,0.543,0.248,0.221,northwest,2.5,No
2015/02/27,01:20,0.531,0.325,0.540,0.493,0.541,0.250,0.220,west-northwest,1.3,No
2015/02/27,01:30,0.532,0.326,0.542,0.493,0.544,0.249,0.221,north-northwest,1.1,No
2015/02/27,01:40,0.532,0.324,0.542,0.494,0.542,0.249,0.220,north-northwest,3.1,No
2015/02/27,01:50,0.531,0.324,0.541,0.493,0.543,0.249,0.220,northwest,2.3,No
2015/02/27,02:00,0.531,0.326,0.541,0.491,0.541,0.249,0.221,north-northwest,2.1,No
2015/02/27,02:10,0.531,0.324,0.543,0.492,0.543,0.248,0.220,north-northeast,2.2,No
2015/02/27,02:20,0.530,0.324,0.542,0.494,0.543,0.248,0.218,north,2.0,No
2015/02/27,02:30,0.529,0.324,0.541,0.493,0.539,0.249,0.220,north,2.8,No
2015/02/27,02:40,0.531,0.325,0.542,0.490,0.542,0.250,0.219,northeast,3.5,No
2015/02/27,02:50,0.529,0.325,0.542,0.494,0.542,0.248,0.220,north-northeast,3.6,No
2015/02/27,03:00,0.528,0.324,0.541,0.495,0.541,0.248,0.219,north,4.3,No
2015/02/27,03:10,0.531,0.325,0.541,0.493,0.544,0.248,0.220,northwest,4.6,No
2015/02/27,03:20,0.530,0.325,0.542,0.492,0.544,0.249,0.220,west-northwest,10.7,No
2015/02/27,03:30,0.529,0.323,0.543,0.495,0.540,0.249,0.221,west,13.7,No
2015/02/27,03:40,0.532,0.324,0.542,0.494,0.542,0.249,0.219,west,15.1,No
2015/02/27,03:50,0.533,0.324,0.542,0.492,0.541,0.249,0.221,west-northwest,15.3,No
2015/02/27,04:00,0.531,0.322,0.543,0.495,0.543,0.251,0.219,west,14.3,No
2015/02/27,04:10,0.532,0.325,0.543,0.496,0.542,0.250,0.221,west-northwest,9.5,No
2015/02/27,04:20,0.534,0.325,0.542,0.492,0.543,0.250,0.221,west-northwest,8.1,No
2015/02/27,04:30,0.531,0.326,0.545,0.493,0.544,0.251,0.220,west-northwest,6.4,No
2015/02/27,04:40,0.534,0.326,0.543,0.494,0.543,0.249,0.221,west-northwest,6.7,No
2015/02/27,04:50,0.534,0.327,0.543,0.496,0.542,0.250,0.221,west-northwest,5.3,No
2015/02/27,05:00,0.533,0.326,0.545,0.496,0.544,0.250,0.221,west-northwest,6.9,No
2015/02/27,05:10,0.534,0.324,0.545,0.494,0.545,0.250,0.220,west-northwest,10.5,No
2015/02/27,05:20,0.535,0.325,0.544,0.495,0.542,0.250,0.220,west-northwest,13.6,No
2015/02/27,05:30,0.533,0.326,0.546,0.496,0.543,0.250,0.221,west-northwest,15.1,No
2015/02/27,05:40,0.534,0.326,0.545,0.495,0.544,0.251,0.221,west-northwest,16.3,No
2015/02/27,05:50,0.536,0.326,0.544,0.495,0.546,0.251,0.222,west-northwest,13.2,No
2015/02/27,06:00,0.535,0.325,0.545,0.497,0.545,0.251,0.221,west-northwest,15.1,No
2015/02/27,06:10,0.535,0.325,0.546,0.496,0.543,0.250,0.222,west-northwest,14.3,No
2015/02/27,06:20,0.538,0.326,0.546,0.495,0.545,0.252,0.221,west-northwest,11.7,No
2015/02/27,06:30,0.537,0.328,0.545,0.496,0.545,0.250,0.222,west-northwest,7.1,No
2015/02/27,06:40,0.537,0.327,0.545,0.498,0.541,0.251,0.221,west-northwest,9.5,No
2015/02/27,06:50,0.535,0.326,0.548,0.495,0.545,0.250,0.222,west-northwest,12.3,No
2015/02/27,07:00,0.538,0.327,0.546,0.495,0.546,0.251,0.223,west-northwest,12.3,No
2015/02/27,07:10,0.535,0.327,0.546,0.498,0.544,0.251,0.222,west-northwest,13.7,No
2015/02/27,07:20,0.535,0.326,0.546,0.497,0.543,0.251,0.221,west-northwest,11.8,No
2015/02/27,07:30,0.536,0.326,0.548,0.495,0.546,0.250,0.221,west-northwest,11.0,No
2015/02/27,07:40,0.537,0.327,0.547,0.495,0.545,0.249,0.221,west,12.3,No
2015/02/27,07:50,0.534,0.327,0.545,0.499,0.544,0.249,0.220,west-northwest,11.1,No
2015/02/27,08:00,0.538,0.326,0.547,0.493,0.543,0.250,0.223,west-northwest,10.5,No
2015/02/27,08:10,0.538,0.326,0.548,0.494,0.544,0.250,0.221,west-northwest,12.9,No
2015/02/27,08:20,0.537,0.327,0.546,0.498,0.543,0.252,0.220,north-northwest,8.7,No
2015/02/27,08:30,0.536,0.327,0.547,0.497,0.544,0.250,0.222,west-northwest,9.9,No
2015/02/27,08:40,0.539,0.327,0.548,0.495,0.544,0.251,0.221,northwest,3.6,No
2015/02/27,08:50,0.537,0.328,0.547,0.499,0.545,0.251,0.222,west-southwest,1.4,No
2015/02/27,09:00,0.536,0.325,0.547,0.497,0.546,0.252,0.221,west-northwest,7.5,No
2015/02/27,09:10,0.537,0.325,0.546,0.497,0.544,0.251,0.222,west,6.0,No
2015/02/27,09:20,0.536,0.327,0.547,0.497,0.546,0.251,0.222,west-northwest,6.2,No
2015/02/27,09:30,0.535,0.325,0.546,0.494,0.545,0.251,0.222,west,10.2,No
2015/02/27,09:40,0.537,0.326,0.547,0.498,0.544,0.251,0.222,west,10.6,No
2015/02/27,09:50,0.535,0.326,0.550,0.494,0.544,0.252,0.222,west-northwest,8.5,No
2015/02/27,10:00,0.537,0.326,0.548,0.497,0.544,0.251,0.223,west,6.2,No
2015/02/27,10:10,0.533,0.328,0.547,0.498,0.544,0.251,0.223,west-northwest,3.2,No
2015/02/27,10:20,0.534,0.327,0.549,0.497,0.548,0.252,0.223,west,6.8,No
2015/02/27,10:30,0.539,0.328,0.548,0.499,0.543,0.251,0.222,west,8.3,No
2015/02/27,10:40,0.535,0.328,0.548,0.496,0.549,0.252,0.222,west,8.4,Yes
2015/02/27,10:50,0.540,0.329,0.551,0.503,0.546,0.254,0.223,west-northwest,7.5,Yes
2015/02/27,11:00,0.541,0.331,0.550,0.502,0.549,0.254,0.225,west,7.0,No
2015/02/27,11:10,0.538,0.330,0.549,0.502,0.550,0.253,0.224,west-southwest,8.1,No
2015/02/27,11:20,0.541,0.329,0.551,0.499,0.547,0.253,0.224,west,12.3,No
2015/02/27,11:30,0.538,0.330,0.549,0.501,0.551,0.252,0.224,west,7.4,Yes
2015/02/27,11:40,0.541,0.328,0.551,0.503,0.546,0.253,0.224,west,9.5,No
2015/02/27,11:50,0.538,0.328,0.550,0.500,0.553,0.253,0.225,west,12.9,No
2015/02/27,12:00,0.540,0.330,0.548,0.502,0.546,0.253,0.224,west,10.6,No
2015/02/27,12:10,0.539,0.330,0.552,0.500,0.548,0.253,0.225,west,11.8,No
2015/02/27,12:20,0.538,0.331,0.550,0.504,0.549,0.254,0.224,west,9.0,Yes
2015/02/27,12:30,0.541,0.329,0.551,0.499,0.545,0.253,0.224,west,9.5,No
2015/02/27,12:40,0.538,0.330,0.552,0.504,0.553,0.254,0.225,west,14.9,No
2015/02/27,12:50,0.542,0.331,0.548,0.501,0.549,0.254,0.225,west,13.0,No
2015/02/27,13:00,0.541,0.330,0.552,0.503,0.553,0.253,0.225,west-northwest,11.0,No
2015/02/27,13:10,0.541,0.329,0.551,0.502,0.548,0.255,0.224,west,11.5,No
2015/02/27,13:20,0.543,0.329,0.553,0.500,0.548,0.254,0.226,west,9.8,No
2015/02/27,13:30,0.540,0.330,0.553,0.505,0.552,0.253,0.226,west,13.3,No
2015/02/27,13:40,0.541,0.330,0.552,0.501,0.548,0.255,0.225,west-northwest,7.4,No
2015/02/27,13:50,0.544,0.328,0.554,0.505,0.553,0.253,0.225,west-northwest,10.7,No
2015/02/27,14:00,0.542,0.328,0.548,0.503,0.548,0.253,0.225,west,9.2,No
2015/02/27,14:10,0.541,0.331,0.551,0.502,0.548,0.254,0.225,west-northwest,9.0,No
2015/02/27,14:20,0.542,0.329,0.553,0.504,0.551,0.254,0.225,west,8.8,No
2015/02/27,14:30,0.540,0.331,0.550,0.501,0.546,0.253,0.225,west-northwest,8.4,No
2015/02/27,14:40,0.541,0.330,0.553,0.505,0.552,0.253,0.226,northwest,4.4,No
2015/02/27,14:50,0.544,0.330,0.554,0.506,0.548,0.256,0.228,west,6.8,No
2015/02/27,15:00,0.542,0.330,0.552,0.505,0.550,0.254,0.226,west,5.3,No
2015/02/27,15:10,0.542,0.332,0.555,0.505,0.552,0.255,0.226,northwest,3.1,No
2015/02/27,15:20,0.541,0.330,0.555,0.504,0.550,0.255,0.226,west,7.5,No
2015/02/27,15:30,0.543,0.329,0.553,0.503,0.549,0.254,0.227,west-northwest,8.4,No
2015/02/27,15:40,0.542,0.329,0.553,0.505,0.553,0.253,0.226,west,6.2,Yes
2015/02/27,15:50,0.543,0.331,0.555,0.505,0.550,0.253,0.226,west-northwest,3.6,No
2015/02/27,16:00,0.543,0.331,0.554,0.503,0.549,0.254,0.227,west-northwest,4.2,No
2015/02/27,16:10,0.542,0.331,0.553,0.503,0.552,0.254,0.227,north-northwest,2.3,No
2015/02/27,16:20,0.545,0.331,0.555,0.506,0.549,0.255,0.226,north-northwest,2.8,No
2015/02/27,16:30,0.542,0.332,0.554,0.504,0.548,0.255,0.226,west,0.9,No
2015/02/27,16:40,0.543,0.331,0.554,0.502,0.550,0.253,0.226,north-northwest,1.7,No
2015/02/27,16:50,0.545,0.330,0.554,0.504,0.549,0.253,0.227,north,1.7,No
2015/02/27,17:00,0.542,0.331,0.554,0.505,0.547,0.253,0.226,north-northeast,3.6,No
2015/02/27,17:10,0.542,0.331,0.554,0.503,0.548,0.254,0.225,north-northeast,2.2,No
2015/02/27,17:20,0.544,0.330,0.553,0.504,0.550,0.254,0.226,north,3.1,No
2015/02/27,17:30,0.544,0.328,0.554,0.505,0.547,0.254,0.226,north-northwest,3.6,No
2015/02/27,17:40,0.541,0.329,0.554,0.503,0.546,0.253,0.225,north-northwest,3.9,No
2015/02/27,17:50,0.541,0.330,0.556,0.503,0.549,0.254,0.225,north-northwest,3.1,No
2015/02/27,18:00,0.543,0.329,0.553,0.504,0.549,0.254,0.226,north-northwest,2.5,No
2015/02/27,18:10,0.542,0.331,0.555,0.503,0.548,0.254,0.226,northwest,2.1,No
2015/02/27,18:20,0.542,0.329,0.554,0.503,0.547,0.255,0.226,west-northwest,2.9,No
2015/02/27,18:30,0.541,0.330,0.555,0.502,0.547,0.255,0.225,northwest,2.1,No
2015/02/27,18:40,0.542,0.330,0.554,0.504,0.548,0.255,0.226,north-northwest,1.9,No
2015/02/27,18:50,0.540,0.329,0.554,0.504,0.549,0.255,0.226,north-northwest,1.3,No
2015/02/27,19:00,0.541,0.331,0.555,0.505,0.548,0.255,0.226,northwest,0.7,No
2015/02/27,19:10,0.541,0.330,0.553,0.503,0.546,0.254,0.226,-,CALM,No
2015/02/27,19:20,0.540,0.330,0.553,0.503,0.546,0.254,0.224,-,CALM,No
2015/02/27,19:30,0.542,0.330,0.552,0.504,0.548,0.254,0.225,-,CALM,No
2015/02/27,19:40,0.540,0.328,0.554,0.504,0.546,0.255,0.226,southwest,0.5,No
2015/02/27,19:50,0.541,0.331,0.555,0.503,0.546,0.254,0.226,northwest,1.8,No
2015/02/27,20:00,0.541,0.329,0.553,0.503,0.548,0.254,0.225,north-northwest,0.9,No
2015/02/27,20:10,0.541,0.330,0.554,0.504,0.548,0.254,0.227,northwest,0.8,No
2015/02/27,20:20,0.540,0.331,0.555,0.504,0.547,0.255,0.225,west-northwest,2.8,No
2015/02/27,20:30,0.541,0.329,0.552,0.503,0.546,0.255,0.225,west-northwest,4.4,No
2015/02/27,20:40,0.542,0.331,0.553,0.504,0.545,0.255,0.226,west-northwest,5.9,No
2015/02/27,20:50,0.542,0.329,0.552,0.503,0.546,0.255,0.226,west,6.7,No
2015/02/27,21:00,0.541,0.332,0.553,0.505,0.547,0.254,0.226,west-northwest,5.5,No
2015/02/27,21:10,0.540,0.330,0.556,0.502,0.546,0.255,0.225,west-northwest,6.6,No
2015/02/27,21:20,0.541,0.330,0.551,0.501,0.547,0.254,0.227,northwest,2.9,No
2015/02/27,21:30,0.542,0.329,0.554,0.504,0.547,0.254,0.225,west-northwest,3.4,No
2015/02/27,21:40,0.541,0.330,0.554,0.503,0.548,0.253,0.226,west-northwest,6.2,No
2015/02/27,21:50,0.541,0.331,0.554,0.506,0.547,0.253,0.226,west,5.6,No
2015/02/27,22:00,0.542,0.329,0.555,0.502,0.547,0.254,0.227,west-northwest,4.7,No
2015/02/27,22:10,0.541,0.331,0.554,0.504,0.545,0.255,0.226,north-northwest,1.9,No
2015/02/27,22:20,0.542,0.331,0.555,0.506,0.546,0.255,0.227,north-northwest,5.3,No
2015/02/27,22:30,0.542,0.330,0.555,0.504,0.549,0.254,0.225,northwest,5.9,No
2015/02/27,22:40,0.541,0.330,0.554,0.503,0.550,0.255,0.226,north-northwest,6.7,No
2015/02/27,22:50,0.542,0.330,0.553,0.503,0.548,0.253,0.226,north-northwest,6.8,No
2015/02/27,23:00,0.541,0.330,0.555,0.503,0.547,0.255,0.226,north-northwest,4.8,No
2015/02/27,23:10,0.541,0.332,0.554,0.505,0.548,0.254,0.226,north-northwest,4.5,No
2015/02/27,23:20,0.541,0.331,0.554,0.503,0.549,0.255,0.226,north-northwest,5.3,No
2015/02/27,23:30,0.541,0.331,0.554,0.502,0.547,0.255,0.226,north-northwest,2.9,No
2015/02/27,23:40,0.541,0.331,0.553,0.504,0.547,0.254,0.226,north-northwest,5.5,No
2015/02/27,23:50,0.540,0.330,0.555,0.503,0.547,0.255,0.227,north-northwest,5.2,No
